User: anonymous   Login
Location: Charleston
(38.3500°N, 81.6330°W)
Time: 20:09:40
(UTC-04:00)
Language:

Cosmos 2228 - Orbit

View from above orbital plane
View from above orbital plane
View from above satellite
View from above satellite

Ground track
Ground track

The orbit data is extracted from the following two-line orbital elements,

1 22286U 92094A   15091.41151331  .00002441  00000-0  27076-3 0  9995
2 22286 082.5212 055.3056 0019235 283.2722 076.6349 14.86763955202421
Epoch (UTC): 01 April 2015 09:52:34
Eccentricity: 0.0019235
inclination: 82.5212°
perigee height: 594 km
apogee height: 621 km
right ascension of ascending node: 55.3056°
argument of perigee: 283.2722°
revolutions per day: 14.86763955
mean anomaly at epoch: 76.6349°
orbit number at epoch: 20242

The dashed part of the orbit path shows where the satellite is in the earth's shadow,  

DLR